Find OneWeb SL0398

NORAD ID: 50478 Int'l Des: 2021-132 Owner: ONEWEBN Country: UK Constellation: oneweb operational
LEOCIRCULARPOLARONEWEB_TYPE

Live Position

Loading 3D Globe...

About OneWeb SL0398

Description loading...

Upcoming Passes

Passes for default location (London). Set your location on the main map for personalized predictions.

Altitude History

Loading altitude history...

Two-Line Element Set

1 50478U 21132K 26126.47679241 .00000420 00000-0 11489-2 0 9991
2 50478 87.8928 29.3500 0001514 78.0356 282.0941 13.11418352210140
Epoch: May 6, 2026 • Age: 12 hours

Current Status

Altitude 1246.7 km
Velocity 7.23 km/s
Sub-Earth Point -78.75°S, 155.91°E
Launch Date Dec 27, 2021
Age 4.3 years
Type internet

Technical Details

Classification Payload
Mass 148.00 kg
Dry Mass 140.00 kg
Total Mass 148.00 kg
Length 1.30 m
Diameter 1.00 m
Span 5.00 m
Shape Trapezoid+2 pan
Manufacturer ONEWUS
Bus Type ARROW
Phase Status In Orbit
Owner/State ONEWEBN/UK

Most Searched